FW7044 Weather Reports


Display with metric or nautical units.
time (UTC)temp
F
wind
direction
speed
MPH
gust
MPH
rain 1hr
in
rain 24hr
in
rain mn
in
humidity
%
barometer
mb
20260831080110 78 309 0.0 0.0 0.00 0.00 0.00 99 1016.4
20260831075605 78 318 0.0 0.0 0.00 0.00 0.00 99 1016.5
20260831075101 78 314 0.0 0.0 0.00 0.00 0.00 99 1016.5
20260831074600 78 280 0.0 0.0 0.00 0.00 0.00 99 1016.5
20260831074055 79 29 0.0 0.0 0.00 0.00 0.00 99 1016.7
20260831073549 78 327 0.0 0.0 0.00 0.00 0.00 99 1016.9
20260831073049 78 115 1.0 1.0 0.00 0.00 0.00 99 1016.7
20260831072545 78 1 0.0 0.0 0.00 0.00 0.00 99 1017.1
20260831072041 78 323 0.0 0.0 0.00 0.00 0.00 99 1016.8
20260831071539 78 323 0.0 0.0 0.00 0.00 0.00 99 1016.8
20260831071035 78 322 0.0 0.0 0.00 0.00 0.00 99 1016.9
20260831070534 78 322 0.0 0.0 0.00 0.00 0.00 99 1016.9
20260831070029 78 323 0.0 0.0 0.00 0.00 0.00 99 1017.0
20260831065527 79 324 0.0 0.0 0.00 0.00 0.00 99 1016.9
20260831065021 78 277 0.0 0.0 0.00 0.00 0.00 99 1017.0
20260831064516 79 290 1.0 1.0 0.00 0.00 0.00 99 1016.9
20260831064012 79 336 1.0 2.0 0.00 0.00 0.00 99 1016.7
20260831063508 79 309 0.0 0.0 0.00 0.00 0.00 99 1017.0
20260831063007 79 291 0.0 0.0 0.00 0.00 0.00 99 1016.7
20260831062503 79 318 0.0 0.0 0.00 0.00 0.00 99 1017.1
20260831062001 79 301 0.0 0.0 0.00 0.00 0.00 99 1016.8
20260831061459 79 293 0.0 0.0 0.00 0.00 0.00 99 1016.8
20260831060956 79 293 0.0 0.0 0.00 0.00 0.00 99 1017.0
20260831060451 79 283 0.0 0.0 0.00 0.00 0.00 99 1017.3
20260831055950 79 243 0.0 1.0 0.00 0.00 0.00 99 1017.3
20260831055446 79 250 0.0 0.0 0.00 0.00 0.00 99 1017.1
20260831054941 79 357 0.0 0.0 0.00 0.00 0.00 99 1017.5
20260831054436 79 81 1.0 2.0 0.00 0.00 0.00 99 1017.5
20260831053935 78 54 1.0 2.0 0.00 0.00 0.00 99 1017.6
20260831053433 78 325 0.0 0.0 0.00 0.00 0.00 99 1017.6
20260831052928 78 325 0.0 0.0 0.00 0.00 0.00 99 1017.5
20260831052428 78 324 0.0 0.0 0.00 0.00 0.00 99 1017.4
20260831051926 78 324 0.0 0.0 0.00 0.00 0.00 99 1017.2
20260831051425 78 325 0.0 0.0 0.00 0.00 0.00 99 1017.4
20260831050920 78 324 0.0 0.0 0.00 0.00 0.00 99 1017.3
20260831050419 78 324 0.0 0.0 0.00 0.00 0.00 99 1017.4
20260831045918 78 324 0.0 0.0 0.00 0.00 0.00 99 1017.7
20260831045418 78 324 0.0 0.0 0.00 0.00 0.00 99 1017.7
20260831044913 78 324 0.0 0.0 0.00 0.00 0.00 99 1017.9
20260831044408 78 324 0.0 0.0 0.00 0.00 0.00 99 1017.9
20260831043904 78 324 0.0 0.0 0.00 0.00 0.00 99 1018.0
20260831043403 78 324 0.0 0.0 0.00 0.00 0.00 99 1018.0
20260831042859 78 324 0.0 0.0 0.00 0.00 0.00 99 1017.9
20260831042358 78 324 0.0 0.0 0.00 0.00 0.00 99 1018.2
20260831041853 79 325 0.0 0.0 0.00 0.00 0.00 99 1018.1
20260831041352 78 315 0.0 0.0 0.00 0.00 0.00 99 1018.1
20260831040847 78 315 0.0 0.0 0.00 0.00 0.00 99 1018.1
20260831040342 78 315 0.0 0.0 0.00 0.00 0.00 99 1018.1
20260831035840 79 315 0.0 0.0 0.00 0.46 0.46 99 1018.1
20260831035339 79 315 0.0 0.0 0.00 0.46 0.46 99 1018.3
20260831034833 79 315 0.0 0.0 0.00 0.46 0.46 99 1018.3
20260831034329 79 315 0.0 0.0 0.00 0.46 0.46 99 1018.2
20260831033825 79 315 0.0 0.0 0.00 0.46 0.46 99 1018.3
20260831033324 79 314 0.0 0.0 0.00 0.46 0.46 99 1018.0
20260831032820 79 315 0.0 0.0 0.00 0.46 0.46 99 1018.3
20260831032314 79 315 0.0 0.0 0.00 0.46 0.46 99 1018.0
20260831031810 79 316 0.0 0.0 0.00 0.46 0.46 99 1018.2
20260831031309 79 317 0.0 0.0 0.00 0.46 0.46 98 1018.2
20260831030804 79 315 0.0 0.0 0.00 0.46 0.46 98 1018.3
20260831030302 79 314 0.0 0.0 0.00 0.46 0.46 98 1018.0
20260831025801 79 314 0.0 0.0 0.00 0.46 0.46 98 1018.1
20260831025256 80 315 0.0 0.0 0.00 0.46 0.46 97 1017.9
20260831024752 80 315 0.0 0.0 0.00 0.46 0.46 96 1017.9
20260831024251 80 314 0.0 0.0 0.00 0.46 0.46 96 1018.0
20260831023750 80 315 0.0 0.0 0.00 0.46 0.46 96 1017.9
20260831023249 80 315 0.0 0.0 0.00 0.46 0.46 95 1017.8
20260831022744 80 315 0.0 0.0 0.00 0.46 0.46 95 1017.8
20260831022243 80 321 0.0 0.0 0.00 0.46 0.46 95 1018.2
20260831021738 81 328 0.0 0.0 0.00 0.46 0.46 94 1018.0
20260831021238 81 324 0.0 0.0 0.00 0.46 0.46 94 1018.1
20260831020735 81 39 0.0 0.0 0.00 0.46 0.46 93 1018.0
20260831020233 81 315 0.0 0.0 0.00 0.46 0.46 93 1017.9
20260831015729 81 322 0.0 0.0 0.00 0.46 0.46 93 1018.1
20260831015225 81 318 0.0 0.0 0.00 0.46 0.46 92 1018.0
20260831014720 81 333 0.0 0.0 0.00 0.46 0.46 92 1018.2
20260831014214 81 352 0.0 0.0 0.00 0.46 0.46 92 1018.1
20260831013711 81 116 1.0 1.0 0.00 0.46 0.46 92 1018.3
20260831013210 81 269 0.0 0.0 0.00 0.46 0.46 92 1018.1
20260831012705 81 334 0.0 0.0 0.00 0.46 0.46 92 1018.2
20260831012201 82 333 0.0 0.0 0.00 0.46 0.46 91 1018.2
20260831011659 82 81 1.0 1.0 0.00 0.46 0.46 90 1018.1
20260831011155 82 320 0.0 0.0 0.00 0.46 0.46 90 1017.9
20260831010651 82 7 0.0 0.0 0.00 0.46 0.46 91 1018.2
20260831010146 82 44 0.0 1.0 0.00 0.46 0.46 90 1018.2
20260831005646 82 336 0.0 0.0 0.00 0.46 0.46 90 1018.1
20260831005141 82 333 0.0 0.0 0.00 0.46 0.46 90 1018.2
20260831004637 82 8 0.0 0.0 0.00 0.46 0.46 89 1018.1
20260831004133 82 6 0.0 0.0 0.00 0.46 0.46 90 1017.8
20260831003628 82 322 0.0 0.0 0.00 0.46 0.46 89 1017.6
20260831003124 82 331 0.0 0.0 0.00 0.46 0.46 89 1017.7
20260831002622 82 291 0.0 0.0 0.00 0.46 0.46 88 1017.9
20260831002118 82 39 0.0 0.0 0.00 0.46 0.46 88 1017.7
20260831001614 83 321 0.0 0.0 0.00 0.46 0.46 89 1017.7
20260831001109 83 321 0.0 0.0 0.00 0.46 0.46 88 1017.6
20260831000606 83 347 0.0 0.0 0.00 0.46 0.46 88 1017.6
20260831000106 83 316 0.0 0.0 0.00 0.46 0.46 88 1017.4
20260830235604 83 327 0.0 0.0 0.00 0.46 0.46 89 1017.6
20260830235059 84 327 0.0 0.0 0.00 0.46 0.46 89 1017.6
20260830234559 84 339 0.0 0.0 0.00 0.46 0.46 88 1017.5
20260830234055 84 332 0.0 0.0 0.00 0.46 0.46 86 1017.6
20260830233550 85 327 0.0 0.0 0.00 0.46 0.46 86 1017.6
20260830233046 85 330 0.0 0.0 0.00 0.46 0.46 86 1017.3
20260830232542 86 326 0.0 0.0 0.00 0.46 0.46 85 1017.3
20260830232038 86 358 0.0 0.0 0.00 0.46 0.46 83 1017.0
20260830231533 86 319 0.0 0.0 0.00 0.46 0.46 82 1017.1
20260830231032 86 52 1.0 1.0 0.00 0.46 0.46 81 1016.8
20260830230528 87 33 0.0 0.0 0.00 0.46 0.46 82 1016.7
20260830230023 87 350 0.0 0.0 0.00 0.46 0.46 80 1016.7
20260830225518 87 332 0.0 0.0 0.00 0.46 0.46 81 1016.6
20260830225018 87 92 2.0 2.0 0.00 0.46 0.46 79 1016.5
20260830224516 87 65 0.0 0.0 0.00 0.46 0.46 79 1017.0
20260830224014 88 355 3.0 5.0 0.00 0.46 0.46 79 1016.9
20260830223510 88 75 4.0 5.0 0.00 0.46 0.46 78 1017.4
20260830223009 88 190 1.0 1.0 0.00 0.46 0.46 79 1017.1
20260830222504 89 124 2.0 3.0 0.00 0.46 0.46 78 1017.2
20260830222000 89 76 0.0 1.0 0.00 0.46 0.46 77 1016.9
20260830221455 89 152 2.0 2.0 0.00 0.46 0.46 75 1017.0
20260830220946 89 344 0.0 0.0 0.00 0.46 0.46 76 1017.0
20260830220445 89 122 3.0 3.0 0.00 0.46 0.46 74 1017.0
20260830215942 89 150 0.0 0.0 0.00 0.46 0.46 75 1017.0
20260830215438 89 117 0.0 0.0 0.00 0.46 0.46 75 1017.1
20260830214932 89 18 0.0 0.0 0.00 0.46 0.46 76 1016.9
20260830214422 90 188 0.0 0.0 0.00 0.46 0.46 75 1016.8
20260830213922 90 61 0.0 0.0 0.00 0.46 0.46 77 1016.8
20260830213418 90 152 2.0 2.0 0.00 0.46 0.46 77 1016.8
20260830212913 90 77 1.0 2.0 0.00 0.46 0.46 75 1016.8
20260830212408 90 32 0.0 1.0 0.00 0.46 0.46 77 1016.8
20260830211903 91 154 3.0 5.0 0.00 0.46 0.46 73 1016.9
20260830211403 91 127 3.0 3.0 0.00 0.46 0.46 72 1017.0
20260830210859 91 4 0.0 0.0 0.00 0.46 0.46 72 1017.0
20260830210357 92 213 2.0 2.0 0.00 0.46 0.46 74 1017.0
20260830205855 91 144 3.0 3.0 0.00 0.46 0.46 74 1017.0
20260830205354 90 356 2.0 2.0 0.00 0.46 0.46 77 1017.1
20260830204850 90 340 1.0 2.0 0.00 0.46 0.46 75 1017.0
20260830204348 91 219 0.0 0.0 0.00 0.46 0.46 75 1017.0
20260830203844 90 9 0.0 0.0 0.00 0.46 0.46 78 1016.8
20260830203341 91 81 0.0 0.0 0.00 0.46 0.46 78 1016.8
20260830202840 91 104 5.0 7.0 0.00 0.46 0.46 77 1016.9
20260830202335 92 306 2.0 3.0 0.00 0.46 0.46 77 1017.1
20260830201830 91 53 1.0 1.0 0.00 0.46 0.46 78 1017.3
20260830201324 91 328 3.0 3.0 0.00 0.46 0.46 76 1017.0
20260830200820 92 327 3.0 3.0 0.00 0.46 0.46 75 1017.2
20260830200320 91 149 1.0 3.0 0.00 0.46 0.46 75 1017.5
20260830195815 92 47 2.0 2.0 0.00 0.46 0.46 73 1017.5
20260830195315 95 243 0.0 0.0 0.00 0.46 0.46 68 1017.5
20260830194813 92 237 0.0 0.0 0.00 0.46 0.46 71 1017.4
20260830194307 91 118 2.0 5.0 0.00 0.46 0.46 74 1017.7
20260830193802 90 290 0.0 0.0 0.00 0.46 0.46 74 1017.4
20260830193301 91 353 0.0 0.0 0.00 0.46 0.46 76 1017.4
20260830192758 92 346 0.0 0.0 0.00 0.46 0.46 74 1017.4
20260830192257 91 274 0.0 0.0 0.00 0.46 0.46 73 1017.6
20260830191754 89 219 0.0 0.0 0.00 0.46 0.46 72 1017.7
20260830191253 90 78 3.0 3.0 0.00 0.46 0.46 75 1017.5
20260830190749 92 345 0.0 0.0 0.00 0.46 0.46 76 1017.8
20260830190244 89 274 1.0 1.0 0.00 0.46 0.46 74 1017.6
20260830185742 90 107 2.0 3.0 0.00 0.46 0.46 77 1017.9
20260830185238 88 332 1.0 1.0 0.00 0.46 0.46 80 1017.8
20260830184737 88 100 4.0 5.0 0.00 0.46 0.46 80 1017.7
20260830184237 87 14 0.0 1.0 0.00 0.46 0.46 81 1017.7
20260830183732 87 335 0.0 0.0 0.00 0.46 0.46 84 1017.8
20260830183227 87 301 0.0 0.0 0.00 0.46 0.46 82 1018.0
20260830182722 87 24 0.0 0.0 0.00 0.46 0.46 83 1018.2
20260830182218 85 303 0.0 0.0 0.00 0.46 0.46 87 1018.3
20260830181714 85 13 1.0 1.0 0.00 0.46 0.46 87 1018.4
20260830181214 84 319 0.0 0.0 0.00 0.46 0.46 85 1018.5
20260830180713 85 340 1.0 1.0 0.00 0.46 0.46 86 1018.8
20260830180208 85 303 0.0 1.0 0.00 0.46 0.46 87 1018.8
20260830175708 84 155 1.0 2.0 0.00 0.46 0.46 90 1019.0
20260830175202 84 72 1.0 1.0 0.00 0.46 0.46 90 1019.2
20260830174657 82 357 1.0 1.0 0.00 0.46 0.46 94 1018.9
20260830174154 82 351 1.0 3.0 0.00 0.46 0.46 98 1019.1
20260830173653 81 46 3.0 5.0 0.00 0.46 0.46 99 1019.1
20260830173148 80 72 0.0 2.0 0.00 0.46 0.46 99 1019.1
20260830172645 80 46 2.0 3.0 0.00 0.46 0.46 99 1019.1
20260830172142 80 336 2.0 2.0 0.00 0.46 0.46 99 1019.2
20260830171642 80 322 0.0 1.0 0.00 0.46 0.46 99 1019.0
20260830171137 80 26 5.0 11.0 0.00 0.46 0.46 99 1019.3
20260830170632 80 215 1.0 2.0 0.00 0.46 0.46 99 1019.4
20260830170131 82 339 2.0 2.0 0.00 0.46 0.46 99 1019.4
20260830165625 80 18 0.0 1.0 0.05 0.46 0.46 99 1019.8
20260830165121 80 343 1.0 2.0 0.05 0.46 0.46 99 1019.6
20260830164618 80 1 0.0 1.0 0.07 0.45 0.45 99 1019.8
20260830164113 80 12 1.0 1.0 0.12 0.45 0.45 99 1019.9
20260830163610 79 348 1.0 1.0 0.31 0.45 0.45 99 1019.7
20260830163109 80 327 3.0 3.0 0.97 0.43 0.43 99 1020.1
20260830162605 80 9 1.0 1.0 0.97 0.39 0.39 99 1020.1
20260830162101 80 132 3.0 3.0 0.54 0.29 0.29 99 1020.4
20260830161600 80 294 0.0 0.0 0.66 0.23 0.23 99 1020.1
20260830161055 81 237 3.0 5.0 0.90 0.20 0.20 99 1020.0
20260830160551 82 338 1.0 1.0 0.66 0.12 0.12 98 1019.4
20260830160046 83 319 0.0 0.0 0.24 0.05 0.05 95 1019.3
20260830155542 85 91 6.0 10.0 0.00 0.01 0.01 91 1019.3
20260830155038 88 116 11.0 14.0 0.00 0.01 0.01 87 1019.3
20260830154533 91 11 0.0 0.0 0.00 0.01 0.01 80 1019.1
20260830154029 92 334 0.0 0.0 0.00 0.01 0.01 79 1019.3
20260830153525 94 300 1.0 1.0 0.00 0.01 0.01 76 1019.1
20260830153025 93 236 1.0 2.0 0.00 0.01 0.01 74 1019.3
20260830152519 91 197 0.0 1.0 0.00 0.01 0.01 77 1019.0
20260830152018 92 216 3.0 3.0 0.00 0.01 0.01 74 1019.3
20260830151513 92 224 4.0 5.0 0.00 0.01 0.01 76 1019.1
20260830151008 91 307 2.0 3.0 0.00 0.01 0.01 79 1019.0
20260830150507 92 258 1.0 1.0 0.00 0.01 0.01 81 1019.0
20260830150002 91 288 0.0 0.0 0.00 0.01 0.01 80 1019.0
20260830145501 92 255 2.0 2.0 0.00 0.01 0.01 78 1018.6
20260830144956 91 196 2.0 2.0 0.00 0.01 0.01 77 1018.8
20260830144453 91 323 2.0 2.0 0.00 0.01 0.01 82 1018.8
20260830143948 90 182 1.0 2.0 0.00 0.01 0.01 83 1018.9
20260830143443 89 293 0.0 0.0 0.00 0.01 0.01 84 1018.8
20260830142942 91 92 2.0 3.0 0.00 0.01 0.01 82 1019.0
20260830142437 90 284 3.0 3.0 0.00 0.01 0.01 85 1019.2
20260830141932 90 218 3.0 5.0 0.00 0.01 0.01 84 1019.2
20260830141427 91 134 2.0 2.0 0.00 0.01 0.01 83 1019.1
20260830140922 90 122 2.0 2.0 0.00 0.01 0.01 86 1019.1
20260830140418 91 262 3.0 3.0 0.00 0.01 0.01 86 1019.2
20260830135916 90 86 1.0 2.0 0.00 0.01 0.01 85 1019.3
20260830135412 88 110 3.0 3.0 0.00 0.01 0.01 90 1019.1
20260830134908 86 41 0.0 1.0 0.00 0.01 0.01 97 1019.2
20260830134403 85 8 1.0 2.0 0.00 0.01 0.01 99 1019.0
20260830133859 84 325 1.0 2.0 0.00 0.01 0.01 99 1019.1
20260830133354 84 335 1.0 1.0 0.00 0.01 0.01 99 1019.2
20260830132849 84 3 1.0 1.0 0.00 0.01 0.01 99 1019.1
20260830132346 83 332 0.0 1.0 0.00 0.01 0.01 99 1019.0
20260830131844 84 346 0.0 0.0 0.00 0.01 0.01 99 1019.0
20260830131344 83 328 0.0 0.0 0.00 0.01 0.01 99 1019.1
20260830130839 83 345 1.0 1.0 0.00 0.01 0.01 99 1018.8
20260830130335 82 346 0.0 1.0 0.00 0.01 0.01 99 1018.9
20260830125833 82 320 0.0 0.0 0.00 0.01 0.01 99 1018.7
20260830125330 83 345 0.0 0.0 0.00 0.01 0.01 99 1018.6
20260830124827 83 334 0.0 0.0 0.00 0.01 0.01 99 1018.7
20260830124322 82 321 0.0 0.0 0.00 0.01 0.01 99 1018.5
20260830123818 81 337 0.0 0.0 0.00 0.01 0.01 99 1018.4
20260830123315 81 324 0.0 0.0 0.00 0.01 0.01 99 1018.7
20260830122813 80 324 0.0 0.0 0.00 0.01 0.01 99 1018.6
20260830122307 80 320 0.0 0.0 0.00 0.01 0.01 99 1018.6
20260830121802 79 302 0.0 0.0 0.00 0.01 0.01 99 1018.3
20260830121301 79 301 0.0 0.0 0.00 0.01 0.01 99 1018.6
20260830120751 79 301 0.0 0.0 0.00 0.01 0.01 99 1018.4
20260830120247 79 301 0.0 0.0 0.00 0.01 0.01 99 1018.5
20260830115743 79 301 0.0 0.0 0.00 0.01 0.01 99 1018.3
20260830115238 78 300 0.0 0.0 0.00 0.01 0.01 99 1018.4
20260830114735 78 336 0.0 0.0 0.00 0.01 0.01 99 1017.9
20260830114230 78 335 0.0 0.0 0.00 0.01 0.01 99 1018.0
20260830113726 78 335 0.0 0.0 0.00 0.01 0.01 99 1018.1
20260830113225 78 335 0.0 0.0 0.00 0.01 0.01 99 1017.9
20260830112722 78 335 0.0 0.0 0.00 0.01 0.01 99 1017.9
20260830112218 78 336 0.0 0.0 0.00 0.01 0.01 99 1017.9
20260830111713 78 336 0.0 0.0 0.00 0.01 0.01 99 1017.7
20260830111209 77 336 0.0 0.0 0.00 0.01 0.01 99 1017.8
20260830110703 77 336 0.0 0.0 0.00 0.01 0.01 99 1017.8
20260830110200 77 336 0.0 0.0 0.00 0.01 0.01 99 1017.4
20260830105659 77 336 0.0 0.0 0.00 0.01 0.01 99 1017.3
20260830105154 77 336 0.0 0.0 0.00 0.01 0.01 99 1017.3
20260830104651 77 336 0.0 0.0 0.00 0.01 0.01 99 1017.2
20260830104148 77 336 0.0 0.0 0.00 0.01 0.01 99 1017.1
20260830103646 77 336 0.0 0.0 0.00 0.01 0.01 99 1017.1
20260830103142 77 336 0.0 0.0 0.00 0.01 0.01 99 1016.9
20260830102640 77 336 0.0 0.0 0.00 0.01 0.01 99 1017.0
20260830102137 77 336 0.0 0.0 0.00 0.01 0.01 99 1017.1
20260830101632 77 336 0.0 0.0 0.00 0.01 0.01 99 1016.8
20260830101132 77 329 0.0 0.0 0.00 0.01 0.01 99 1016.8
20260830100627 77 328 0.0 0.0 0.00 0.01 0.01 99 1016.9
20260830100121 77 328 0.0 0.0 0.00 0.01 0.01 99 1016.9
20260830095620 77 327 0.0 0.0 0.00 0.01 0.01 99 1016.8
20260830095117 77 328 0.0 0.0 0.00 0.01 0.01 99 1016.8
20260830094613 77 329 0.0 0.0 0.00 0.01 0.01 99 1016.5
20260830094108 77 320 0.0 0.0 0.00 0.01 0.01 99 1016.7
20260830093602 77 320 0.0 0.0 0.00 0.01 0.01 99 1016.7
20260830093059 77 320 0.0 0.0 0.00 0.01 0.01 99 1016.7
20260830092553 77 320 0.0 0.0 0.00 0.01 0.01 99 1016.6
20260830092051 77 320 0.0 0.0 0.00 0.01 0.01 99 1016.6
20260830091545 77 314 0.0 0.0 0.00 0.01 0.01 99 1016.8
20260830091044 77 330 0.0 0.0 0.00 0.01 0.01 99 1016.8
20260830090539 77 305 0.0 0.0 0.00 0.01 0.01 99 1016.7
20260830090030 77 304 0.0 0.0 0.00 0.01 0.01 99 1016.8
20260830085529 77 303 0.0 0.0 0.00 0.01 0.01 99 1016.9
20260830085025 77 304 0.0 0.0 0.00 0.01 0.01 99 1016.8
20260830084520 77 304 0.0 0.0 0.00 0.01 0.01 99 1016.8
20260830084015 77 303 0.0 0.0 0.00 0.01 0.01 99 1016.9
20260830083511 77 303 0.0 0.0 0.00 0.01 0.01 99 1016.8
20260830083011 77 303 0.0 0.0 0.00 0.01 0.01 99 1017.1
20260830082506 77 303 0.0 0.0 0.00 0.01 0.01 99 1017.2
20260830082000 77 303 0.0 0.0 0.00 0.01 0.01 99 1017.1
20260830081450 77 303 0.0 0.0 0.00 0.01 0.01 99 1016.9
20260830080949 77 303 0.0 0.0 0.00 0.01 0.01 99 1016.9
20260830080445 77 303 0.0 0.0 0.00 0.01 0.01 99 1017.0